User: anonymous   Login
Location: Ferintosh
(52.7647°N, 112.9692°W)
Time: 12:22:06
(UTC+00:00)
Language:

Courier 1B - Orbit

View from above orbital plane
View from above orbital plane
View from above satellite
View from above satellite

Ground track
Ground track

The orbit data is extracted from the following two-line orbital elements,

1 00058U 60013A   24139.94183366  .00000149  00000-0  10081-3 0  9999
2 00058  28.3291  32.1233 0164770  41.0409 320.2407 13.46375617131665
Epoch (UTC): 18 May 2024 22:36:14
Eccentricity: 0.0164770
inclination: 28.3291°
perigee height: 962 km
apogee height: 1208 km
right ascension of ascending node: 32.1233°
argument of perigee: 41.0409°
revolutions per day: 13.46375617
mean anomaly at epoch: 320.2407°
orbit number at epoch: 13166

The dashed part of the orbit path shows where the satellite is in the earth's shadow,  

DLR